Date String (YYYY-MM-DD hh:mm:ss) UTC,Instrument flags,absolute air pressure of the measurement (hPa),sample flow rate (lpm),inlet stack bypass flow (lpm),air temperature of the measurement (°C),ambient temperature measured by the external sensor (°C),aerosol sample conditioner tube jacket temperature (°C),OPC LED temperature (°C),internal box temperature (°C),relative humidity of the measurement (%),span deviation,mass concentration of particles derived from Lorenz-Mie calculation of OPC scattering (μg/m³),mass concentration of particles derived from Lorenz-Mie calculation of OPC scattering (μg/m³),mass concentration of particles derived from Lorenz-Mie calculation of OPC scattering (μg/m³)
DateTimeUTC,F1_M11,P_M11,Q1_M11,Q2_M11,T1_M11,T2_M11,T3_M11,T4_M11,T5_M11,U1_M11,ZSPAN_M11,X0_M11,X2_M11,X1_M11
2023-09-13 13:00:00,SystemResetWarning,0831.3,5.00,000.00,029.2,027.6,000.0,037.6,030.8,22.4,-001.1,0013.34,0006.32,0005.66
2023-09-13 13:01:00,SystemResetWarning,0831.3,5.00,000.00,029.2,027.6,000.0,037.6,030.7,22.3,-001.0,0013.27,0006.37,0005.68
2023-09-13 13:02:00,SystemResetWarning,0831.3,5.00,000.00,029.2,027.6,000.0,037.6,030.7,22.3,-000.4,0013.78,0006.40,0005.70
2023-09-13 13:03:00,SystemResetWarning,0831.3,5.00,000.00,029.2,027.6,000.0,037.6,030.7,21.9,-000.4,0013.34,0006.44,0005.74
2023-09-13 13:04:00,SystemResetWarning,0831.3,5.00,000.00,029.2,027.6,000.0,037.6,030.7,21.9,-000.3,0013.11,0006.47,0005.76
2023-09-13 13:05:00,SystemResetWarning,0831.3,5.00,000.00,029.2,027.6,000.0,037.6,030.8,21.9,-000.0,0013.07,0006.55,0005.81
2023-09-13 13:06:00,SystemResetWarning,0831.3,5.00,000.00,029.2,027.6,000.0,037.6,030.7,21.8,0000.2,0012.44,0006.63,0005.83
2023-09-13 13:07:00,SystemResetWarning,0831.3,5.00,000.00,029.2,027.6,000.0,037.6,030.7,21.8,0000.6,0012.84,0006.63,0005.85
2023-09-13 13:08:00,SystemResetWarning,0831.3,5.00,000.00,029.2,027.6,000.0,037.6,030.7,21.6,0000.2,0012.66,0006.63,0005.85
2023-09-13 13:09:00,SystemResetWarning,0831.3,5.00,000.00,029.2,027.6,000.0,037.6,030.7,21.4,0000.0,0012.88,0006.68,0005.85
2023-09-13 13:10:00,SystemResetWarning,0831.3,5.01,000.00,029.2,027.6,000.0,037.6,030.7,21.1,0000.1,0014.14,0006.72,0005.85
2023-09-13 13:11:00,SystemResetWarning,0831.3,5.01,000.00,029.2,027.6,000.0,037.6,030.7,21.0,0000.2,0014.32,0006.73,0005.83
2023-09-13 13:12:00,SystemResetWarning,0831.3,5.00,000.00,029.2,027.6,000.0,037.6,030.7,20.9,-000.0,0014.41,0006.73,0005.82
2023-09-13 13:13:00,SystemResetWarning,0831.3,4.99,000.00,029.2,027.6,000.0,037.6,030.7,20.9,-000.6,0013.72,0006.70,0005.82
2023-09-13 13:14:00,SystemResetWarning,0831.3,5.00,000.00,029.2,027.6,000.0,037.6,030.7,20.9,-000.6,0014.17,0006.64,0005.79
2023-09-13 13:15:00,SystemResetWarning,0831.3,5.00,000.00,029.2,027.6,000.0,037.6,030.7,20.7,-000.8,0014.51,0006.62,0005.78
2023-09-13 13:16:00,SystemResetWarning,0831.3,5.00,000.00,029.2,027.6,000.0,037.6,030.7,20.3,-000.4,0014.72,0006.58,0005.75
2023-09-13 13:17:00,SystemResetWarning,0831.3,5.01,000.00,029.2,027.6,000.0,037.6,030.7,19.9,-000.6,0014.70,0006.51,0005.73
2023-09-13 13:18:00,SystemResetWarning,0831.3,5.00,000.00,029.2,027.6,000.0,037.6,030.7,19.6,-001.1,0014.10,0006.48,0005.71
2023-09-13 13:19:00,SystemResetWarning,0831.3,5.00,000.00,029.2,027.6,000.0,037.6,030.7,19.6,-000.9,0014.94,0006.46,0005.71
2023-09-13 13:20:00,SystemResetWarning,0831.3,4.99,000.00,029.2,027.6,000.0,037.6,030.7,19.4,-000.8,0014.62,0006.42,0005.70
2023-09-13 13:21:00,SystemResetWarning,0831.3,4.99,000.00,029.2,027.6,000.0,037.6,030.7,19.2,-000.9,0013.44,0006.36,0005.69
2023-09-13 13:22:00,SystemResetWarning,0831.3,4.99,000.00,029.2,027.6,000.0,037.6,030.7,19.0,-000.8,0013.10,0006.33,0005.68
2023-09-13 13:23:00,SystemResetWarning,0831.3,5.00,000.00,029.2,027.6,000.0,037.6,030.7,18.8,-001.0,0012.86,0006.28,0005.66
2023-09-13 13:24:00,SystemResetWarning,0831.3,5.00,000.00,029.2,027.6,000.0,037.6,030.7,18.7,-000.8,0012.76,0006.30,0005.65
2023-09-13 13:25:00,SystemResetWarning,0831.3,5.01,000.00,029.2,027.6,000.0,037.6,030.7,18.7,-000.6,0012.09,0006.27,0005.64
2023-09-13 13:26:00,SystemResetWarning,0831.3,5.00,000.00,029.2,027.6,000.0,037.6,030.7,18.7,-000.4,0012.00,0006.25,0005.61
2023-09-13 13:27:00,SystemResetWarning,0831.3,5.01,000.00,029.2,027.6,000.0,037.6,030.7,18.8,-000.6,0011.91,0006.22,0005.60
2023-09-13 13:28:00,SystemResetWarning,0831.3,5.00,000.00,029.2,027.6,000.0,037.6,030.7,18.8,-000.3,0011.88,0006.25,0005.62
2023-09-13 13:29:00,SystemResetWarning,0831.3,5.00,000.00,029.2,027.6,000.0,037.6,030.7,18.8,0000.0,0012.31,0006.31,0005.63
2023-09-13 13:30:00,SystemResetWarning,0831.3,4.99,000.00,029.2,027.6,000.0,037.6,030.7,18.8,-000.0,0011.63,0006.31,0005.63
2023-09-13 13:31:00,SystemResetWarning,0831.3,4.99,000.00,029.2,027.6,000.0,037.6,030.7,18.9,-000.1,0011.65,0006.29,0005.62
2023-09-13 13:32:00,SystemResetWarning,0831.3,5.00,000.00,029.2,027.6,000.0,037.6,030.7,18.8,-000.2,0011.73,0006.29,0005.61
2023-09-13 13:33:00,SystemResetWarning,0831.3,5.00,000.00,029.2,027.6,000.0,037.6,030.7,18.9,-000.5,0011.76,0006.25,0005.60
2023-09-13 13:34:00,SystemResetWarning,0831.3,5.00,000.00,029.2,027.6,000.0,037.6,030.7,18.9,-000.2,0012.30,0006.24,0005.58
2023-09-13 13:35:00,SystemResetWarning,0831.3,5.00,000.00,029.2,027.6,000.0,037.6,030.7,18.9,0000.2,0012.38,0006.19,0005.55
2023-09-13 13:36:00,SystemResetWarning,0831.3,5.00,000.00,029.2,027.6,000.0,037.6,030.7,18.9,0000.8,0012.96,0006.17,0005.54
2023-09-13 13:37:00,SystemResetWarning,0831.3,5.00,000.00,029.2,027.6,000.0,037.6,030.7,18.9,0000.4,0013.26,0006.15,0005.53
2023-09-13 13:38:00,SystemResetWarning,0831.3,5.00,000.00,029.2,027.6,000.0,037.6,030.7,19.2,0000.5,0013.10,0006.12,0005.49
2023-09-13 13:39:00,SystemResetWarning,0831.3,5.00,000.00,029.2,027.7,000.0,037.6,030.7,19.5,0000.6,0013.48,0006.07,0005.42
2023-09-13 13:40:00,SystemResetWarning,0831.3,4.99,000.00,029.2,027.7,000.0,037.6,030.8,20.1,0000.6,0013.86,0005.97,0005.36
2023-09-13 13:41:00,SystemResetWarning,0831.3,5.00,000.00,029.2,027.7,000.0,037.6,030.8,19.6,0001.2,0013.85,0005.88,0005.30
2023-09-13 13:42:00,SystemResetWarning,0831.3,5.00,000.00,029.2,027.7,000.0,037.6,030.8,18.4,0001.5,0013.41,0005.83,0005.27
2023-09-13 13:43:00,SystemResetWarning,0831.3,5.00,000.00,029.2,027.7,000.0,037.6,030.8,18.3,0001.3,0013.80,0005.80,0005.23
2023-09-13 13:44:00,SystemResetWarning,0831.3,5.00,000.00,029.2,027.7,000.0,037.6,030.8,18.5,0001.6,0014.84,0005.82,0005.21
2023-09-13 13:45:00,SystemResetWarning,0831.3,5.00,000.00,029.2,027.7,000.0,037.6,030.8,19.1,0001.5,0014.75,0005.80,0005.19
2023-09-13 13:46:00,SystemResetWarning,0831.3,5.01,000.00,029.3,027.7,000.0,037.6,030.8,19.4,0001.0,0015.20,0005.77,0005.17
2023-09-13 13:47:00,SystemResetWarning,0831.3,5.00,000.00,029.3,027.7,000.0,037.6,030.8,19.5,-000.1,0014.68,0005.76,0005.12
2023-09-13 13:48:00,SystemResetWarning,0831.3,4.99,000.00,029.3,027.7,000.0,037.6,030.8,19.7,0000.2,0013.76,0005.70,0005.07
2023-09-13 13:49:00,SystemResetWarning,0831.3,5.00,000.00,029.3,027.8,000.0,037.6,030.8,19.9,0000.3,0013.79,0005.65,0005.05
2023-09-13 13:50:00,SystemResetWarning,0831.3,5.00,000.00,029.3,027.8,000.0,037.6,030.8,20.3,0000.3,0013.70,0005.61,0005.03
2023-09-13 13:51:00,SystemResetWarning,0831.3,5.00,000.00,029.3,027.8,000.0,037.6,030.8,20.2,0000.6,0012.97,0005.56,0005.01
2023-09-13 13:52:00,SystemResetWarning,0831.3,5.00,000.00,029.3,027.8,000.0,037.6,030.8,19.7,0000.3,0012.82,0005.53,0004.97
2023-09-13 13:53:00,SystemResetWarning,0831.3,4.99,000.00,029.3,027.7,000.0,037.6,030.8,20.0,-000.0,0013.19,0005.51,0004.90
2023-09-13 13:54:00,SystemResetWarning,0831.3,4.99,000.00,029.3,026.3,000.0,037.5,030.6,20.3,0000.5,0013.33,0005.45,0004.85
2023-09-13 13:55:00,SystemResetWarning,0831.3,5.00,000.00,029.2,024.9,000.0,037.4,030.3,21.0,0000.8,0012.63,0005.36,0004.79
2023-09-13 13:56:00,SystemResetWarning,0831.3,5.00,000.00,029.1,024.7,000.0,037.4,030.1,21.3,0001.0,0011.98,0005.27,0004.74
2023-09-13 13:57:00,SystemResetWarning,0831.3,5.01,000.00,028.9,025.0,000.0,037.4,029.9,21.9,0001.3,0011.57,0005.23,0004.69
2023-09-13 13:58:00,SystemResetWarning,0831.3,4.99,000.00,028.8,025.3,000.0,037.3,029.9,22.7,0001.7,0011.21,0005.13,0004.64
2023-09-13 13:59:00,SystemResetWarning,0831.3,4.99,000.00,028.7,025.7,000.0,037.3,029.9,22.9,0001.0,0011.14,0005.06,0004.59
